This is the latest recevied weather packets stored in our database for station/object DB0SMU-12. If no packets are shown the sender has not sent any weather packets the latest 10 day(s).
| Time | Temp. | Humidity | Pressure | Rain* | Wind** | Luminosity | Snow |
|---|---|---|---|---|---|---|---|
| 1787411092 | 18.89° C | 56% | 1021.8 hPa | 0 mm | - | - | - |
| 1787410911 | 18.89° C | 57% | 1021.7 hPa | 0 mm | - | - | - |
| 1787410730 | 18.89° C | 57% | 1021.7 hPa | 0 mm | - | - | - |
| 1787410549 | 18.89° C | 57% | 1021.7 hPa | 0 mm | - | - | - |
| 1787410368 | 18.89° C | 56% | 1021.6 hPa | 0 mm | - | - | - |
| 1787410187 | 18.89° C | 56% | 1021.7 hPa | 0 mm | - | - | - |
| 1787410006 | 18.89° C | 55% | 1021.6 hPa | 0 mm | - | - | - |
| 1787409825 | 18.89° C | 54% | 1021.6 hPa | 0 mm | - | - | - |
| 1787409644 | 19.44° C | 56% | 1021.7 hPa | 0 mm | - | - | - |
| 1787409478 | 18.89° C | 54% | 1021.6 hPa | 0 mm | - | - | - |
| 1787409282 | 18.89° C | 52% | 1021.5 hPa | 0 mm | - | - | - |
| 1787409101 | 18.89° C | 54% | 1021.6 hPa | 0 mm | - | - | - |
| 1787408920 | 18.89° C | 53% | 1021.6 hPa | 0 mm | - | - | - |
| 1787408739 | 19.44° C | 52% | 1021.6 hPa | 0 mm | - | - | - |
| 1787408558 | 19.44° C | 51% | 1021.4 hPa | 0 mm | - | - | - |
| 1787408377 | 20° C | 51% | 1021.6 hPa | 0 mm | - | - | - |
| 1787408196 | 20° C | 49% | 1021.6 hPa | 0 mm | - | - | - |
| 1787408016 | 19.44° C | 50% | 1021.5 hPa | 0 mm | - | - | - |
| 1787407835 | 19.44° C | 50% | 1021.6 hPa | 0 mm | - | - | - |
| 1787407654 | 19.44° C | 51% | 1021.5 hPa | 0 mm | - | - | - |
| 1787407473 | 19.44° C | 54% | 1021.4 hPa | 0 mm | - | - | - |
| 1787407292 | 19.44° C | 52% | 1021.5 hPa | 0 mm | - | - | - |
| 1787407111 | 19.44° C | 53% | 1021.4 hPa | 0 mm | - | - | - |
| 1787406930 | 18.89° C | 55% | 1021.4 hPa | 0 mm | - | - | - |
| 1787406748 | 18.89° C | 54% | 1021.4 hPa | 0 mm | - | - | - |
* Rain latest hour (hover to see other rain measurements)
** Current wind speed in m/s (hover to see current wind gust speed)